Wind_Speed
38 38 38 36 34 32 31 30 29 28 27 25 23 19 16 14 13 12 14 10 11 13 19 11 8 7 8 9 8 7 4 4 7 10 11 12 13 14 17 20 21 22 23
37 36 36 35 34 33 33 32 31 29 27 25 22 18 16 13 13 12 13 13 12 13 18 12 9 8 9 10 11 10 7 7 9 12 13 14 15 18 20 22 23 23 28
34 34 34 33 34 35 36 34 32 29 27 24 21 19 15 13 13 13 13 13 11 16 14 14 13 11 12 12 10 11 10 12 12 12 14 15 18 21 23 23 24 27 24
42 41 40 38 38 38 38 35 31 27 26 24 21 18 15 14 14 14 13 12 11 13 15 15 16 14 12 14 16 11 11 11 11 14 18 16 18 22 24 25 26 25 25
43 42 41 40 39 37 33 32 31 28 26 22 20 18 16 16 14 14 13 11 13 15 16 17 20 15 13 12 17 17 16 19 18 18 19 20 19 20 21 24 25 25 24
42 41 40 39 39 37 34 31 29 27 25 22 20 19 17 15 15 15 15 14 14 17 19 19 18 13 10 11 16 18 18 18 19 18 19 22 20 20 20 22 24 24 24
43 41 39 37 34 31 30 29 27 26 24 24 22 19 17 17 16 17 15 15 18 21 23 21 16 14 11 12 14 14 16 19 19 17 19 21 21 22 22 21 22 23 24
42 41 37 34 32 32 29 28 27 26 27 25 23 22 22 21 20 19 17 19 21 23 23 17 14 14 13 13 16 17 18 16 16 20 17 24 23 20 21 21 23 23 22
34 38 38 36 33 31 30 31 30 31 30 28 26 27 24 22 19 19 20 22 21 22 16 11 14 13 13 13 16 17 19 15 15 18 17 21 22 22 21 22 24 24 24
35 34 33 35 35 35 35 34 33 34 33 31 30 27 23 22 22 21 22 20 19 16 13 12 13 11 11 12 14 16 16 16 16 17 19 24 24 22 21 23 24 25 25
31 34 35 34 34 36 36 36 36 36 34 33 31 28 26 25 24 24 22 20 17 16 14 13 14 13 12 13 14 17 17 18 19 19 18 22 23 23 22 21 21 22 22
35 34 35 35 34 35 36 37 37 37 36 34 32 30 29 29 27 26 25 23 20 19 18 17 16 16 15 14 16 18 18 19 19 22 21 19 20 21 21 19 20 22 22
42 39 38 39 39 39 39 39 39 39 38 35 33 33 33 33 31 29 28 26 25 23 22 20 20 19 19 15 16 18 20 21 23 25 24 21 22 22 21 19 19 19 21
48 46 43 41 43 43 44 43 42 41 40 37 36 36 36 36 35 33 32 31 27 27 24 24 24 23 23 23 21 20 22 24 27 27 25 25 24 22 20 19 18 17 17
56 53 49 47 45 46 47 47 46 43 42 41 40 41 41 39 38 38 35 30 29 32 29 27 27 26 26 27 25 24 25 27 29 29 28 26 25 24 22 19 18 16 16
61 60 58 53 49 49 50 49 47 46 44 42 43 44 44 43 40 36 33 32 36 35 33 32 31 30 30 29 29 29 28 30 32 32 30 27 26 26 24 20 18 18 18
66 65 63 61 56 52 51 50 50 48 46 43 43 44 45 45 44 39 36 37 40 35 38 37 33 33 33 34 33 32 33 34 34 34 32 30 30 27 25 22 21 19 19
67 68 69 66 62 58 56 54 51 52 48 44 45 45 46 46 44 43 43 43 41 43 35 40 39 34 32 32 33 33 32 35 34 34 35 33 31 29 25 23 23 21 21
70 71 72 72 70 65 62 59 57 54 52 48 48 47 46 45 44 45 46 45 44 45 44 43 40 37 31 31 32 33 35 37 38 34 35 33 32 28 27 23 24 22 19
72 71 73 73 72 70 67 64 61 59 56 52 50 47 45 42 40 41 44 45 47 46 44 44 40 36 32 31 32 32 36 39 39 35 34 33 30 28 27 25 25 23 20
78 76 75 74 74 73 71 68 64 61 59 57 53 49 46 45 44 43 44 45 44 43 41 40 38 34 32 30 31 31 34 37 38 35 34 35 32 27 27 28 27 24 23
84 83 81 79 78 74 73 71 67 64 61 59 56 53 51 50 51 49 45 44 42 42 42 39 33 31 29 29 30 34 36 35 34 34 35 33 27 27 28 29 27 25 25
78 81 84 85 80 76 75 75 73 71 66 61 59 56 54 54 51 52 48 45 43 42 40 35 32 31 30 31 35 35 36 35 34 31 30 30 27 29 29 28 26 26 27
74 72 75 78 82 76 70 70 72 75 76 74 71 67 58 56 52 52 51 48 44 41 36 33 32 34 33 38 37 36 37 38 32 29 30 28 27 28 28 28 27 27 29
77 75 69 67 67 62 59 60 62 66 70 72 69 64 55 51 50 53 48 45 43 42 36 36 36 37 38 40 39 36 36 35 31 29 27 26 28 27 26 27 27 29 29
78 77 75 68 62 63 62 60 56 57 58 58 58 53 48 50 48 43 39 39 42 40 38 39 39 40 41 41 39 35 35 34 32 28 26 27 28 26 25 26 27 27 29
Wind_Direction
240 243 246 249 252 253 253 254 257 260 265 269 274 277 281 284 290 295 297 291 293 311 337 335 322 299 288 277 277 277 256 302 315 307 299 297 296 290 284 285 286 293 293
237 238 240 243 246 248 249 251 254 258 261 267 268 271 274 276 281 285 287 286 296 316 335 335 332 320 280 280 283 286 293 304 320 316 303 301 297 292 287 287 286 282 284
236 237 239 240 240 243 246 248 251 253 258 259 261 263 266 268 270 274 276 277 300 317 326 331 334 322 308 270 275 286 303 312 312 311 312 306 294 288 286 283 279 275 278
230 232 234 235 236 238 240 242 246 248 250 252 252 257 258 259 263 270 268 275 292 309 323 320 326 317 307 298 264 259 272 294 321 335 328 316 291 282 278 280 278 284 283
232 235 238 240 240 240 241 241 242 242 241 245 246 248 251 251 256 258 261 259 279 298 311 308 315 314 305 298 275 264 271 266 283 305 316 314 300 287 279 277 281 285 288
230 232 234 237 238 238 236 234 234 233 236 234 240 241 241 245 250 250 255 270 279 289 299 304 308 306 296 287 272 264 274 292 297 303 310 313 310 299 285 281 281 284 288
232 233 234 235 236 235 231 228 228 227 229 230 233 230 230 238 242 249 261 270 284 285 294 305 302 303 303 299 285 286 293 300 308 313 314 316 311 300 290 281 279 279 285
229 229 227 227 229 229 226 226 227 228 227 227 229 229 232 236 241 250 263 270 276 284 292 296 302 299 306 295 284 284 300 297 297 314 314 312 306 300 291 291 287 285 279
226 227 227 228 228 226 225 225 226 226 228 229 229 229 230 234 241 249 256 268 272 281 288 289 294 295 299 292 292 298 292 288 293 309 315 316 303 302 294 292 289 281 279
222 222 221 222 222 221 220 221 222 225 227 226 226 227 228 229 234 244 258 269 276 278 273 275 282 291 301 290 289 297 287 291 293 308 303 311 308 305 298 293 290 285 276
219 220 219 218 219 220 221 222 222 224 227 227 226 225 226 230 234 245 258 263 272 268 266 274 277 282 300 297 294 295 286 293 284 301 299 303 303 304 300 298 294 284 276
223 222 221 220 219 221 222 223 227 229 229 226 225 225 228 232 236 243 251 257 265 265 266 265 277 274 281 289 292 290 282 286 284 294 298 295 295 296 297 297 293 285 272
225 228 224 220 221 221 225 229 231 231 229 227 225 227 231 234 237 241 246 253 259 264 264 269 272 275 272 278 282 286 282 278 281 290 294 293 292 292 292 294 293 286 278
231 229 230 227 223 225 227 228 230 232 230 227 226 228 233 236 239 243 247 252 258 263 267 270 272 276 275 272 275 282 280 277 281 288 292 292 290 291 289 291 291 287 282
234 232 232 231 227 226 228 231 230 230 230 228 226 229 232 236 239 243 248 259 268 270 269 272 274 277 279 274 274 280 284 282 279 283 285 287 285 288 290 289 285 287 283
233 237 236 233 230 229 229 231 234 235 234 233 233 234 237 241 246 250 255 259 265 271 275 271 273 279 284 282 278 276 284 290 286 286 288 289 287 290 289 288 281 280 283
231 233 235 238 236 233 233 234 236 238 242 238 236 238 242 244 248 250 254 258 264 269 279 285 282 278 282 289 293 289 290 291 293 291 289 289 288 285 286 287 282 273 276
231 231 234 235 238 239 237 237 238 239 243 244 242 240 243 248 253 258 259 260 265 271 270 281 289 289 288 289 295 290 295 294 291 292 289 292 288 283 285 288 286 280 278
231 229 231 234 236 239 240 239 239 240 241 244 247 249 251 253 256 260 264 269 269 270 276 281 289 293 294 288 289 294 292 294 291 291 287 290 289 286 282 281 284 283 282
236 234 231 233 236 239 241 241 241 242 244 245 248 252 254 256 258 260 262 264 269 274 277 281 287 292 293 290 289 286 288 289 288 289 287 283 280 282 275 276 278 279 281
234 236 236 234 235 238 242 242 243 243 244 245 247 250 254 255 254 255 261 265 269 272 274 279 285 290 289 288 284 284 287 289 287 288 288 277 276 276 276 274 273 275 279
232 234 236 238 238 238 240 243 244 245 245 246 245 247 250 255 258 262 262 264 266 267 270 277 279 280 282 282 281 279 286 288 288 289 286 273 262 267 269 271 274 279 280
229 231 234 236 238 239 240 242 244 246 248 249 248 247 247 251 254 259 259 260 260 265 270 274 272 273 272 272 274 279 285 283 283 279 272 259 260 266 268 270 273 275 279
224 225 228 230 233 236 238 241 242 245 247 248 247 249 248 250 252 254 255 256 260 263 265 263 266 266 265 270 274 277 280 281 277 272 259 256 259 264 267 269 273 277 278
229 225 226 226 225 228 233 235 239 241 241 241 242 244 245 247 249 252 252 254 258 258 258 258 260 260 263 268 272 277 278 273 266 254 247 254 259 262 265 269 272 274 277
230 228 228 230 232 230 231 234 237 237 235 237 239 239 240 244 246 247 245 247 243 247 250 252 257 260 262 266 270 271 268 261 248 245 251 255 258 261 266 269 270 274 278
Height
5738 5742 5746 5750 5754 5758 5760 5761 5762 5764 5766 5767 5767 5768 5769 5769 5769 5769 5769 5767 5766 5765 5763 5762 5761 5761 5761 5761 5762 5762 5761 5760 5759 5759 5758 5758 5757 5756 5755 5754 5754 5754 5753
5729 5733 5738 5742 5746 5750 5752 5754 5756 5758 5759 5761 5762 5763 5764 5765 5765 5765 5765 5764 5763 5762 5760 5758 5757 5756 5756 5757 5757 5757 5757 5756 5755 5755 5754 5753 5753 5752 5750 5749 5749 5749 5748
5720 5725 5729 5734 5738 5741 5744 5746 5749 5751 5753 5755 5756 5757 5759 5760 5760 5760 5760 5760 5760 5758 5756 5755 5753 5753 5753 5753 5752 5753 5753 5752 5752 5751 5750 5749 5748 5746 5746 5745 5744 5743 5742
5710 5715 5720 5724 5728 5731 5734 5738 5741 5745 5747 5749 5751 5753 5754 5755 5755 5756 5756 5756 5756 5754 5753 5752 5750 5748 5748 5748 5748 5748 5749 5749 5749 5748 5746 5745 5744 5742 5741 5740 5738 5737 5737
5701 5706 5711 5715 5718 5723 5727 5731 5734 5738 5740 5743 5746 5747 5748 5749 5751 5752 5752 5752 5751 5750 5749 5748 5747 5745 5744 5744 5745 5744 5743 5743 5742 5743 5743 5741 5738 5736 5735 5734 5733 5732 5731
5691 5696 5701 5706 5711 5715 5719 5723 5727 5731 5735 5737 5740 5741 5743 5745 5746 5747 5747 5748 5747 5746 5745 5743 5742 5741 5740 5739 5740 5740 5739 5739 5739 5738 5737 5735 5732 5730 5729 5728 5727 5726 5725
5681 5687 5692 5698 5703 5708 5712 5716 5720 5724 5728 5730 5733 5736 5738 5740 5741 5742 5743 5743 5743 5742 5740 5739 5738 5737 5736 5734 5734 5734 5734 5734 5733 5732 5730 5729 5727 5726 5723 5722 5721 5720 5720
5672 5678 5683 5689 5694 5700 5705 5709 5714 5718 5721 5724 5727 5730 5733 5734 5736 5737 5738 5738 5738 5736 5735 5734 5734 5732 5730 5730 5730 5730 5730 5729 5728 5727 5725 5724 5722 5720 5718 5716 5714 5714 5714
5665 5670 5676 5681 5687 5693 5697 5702 5706 5710 5714 5717 5720 5723 5726 5728 5730 5731 5732 5732 5732 5731 5730 5730 5729 5728 5726 5725 5725 5725 5724 5724 5723 5721 5720 5719 5717 5714 5712 5710 5708 5708 5707
5657 5663 5668 5673 5678 5684 5688 5693 5698 5702 5705 5709 5713 5717 5720 5722 5724 5724 5725 5726 5726 5725 5724 5725 5724 5723 5721 5721 5720 5720 5720 5719 5717 5715 5714 5713 5710 5708 5706 5704 5702 5701 5702
5650 5655 5661 5666 5671 5676 5680 5685 5690 5694 5698 5703 5707 5710 5713 5715 5717 5718 5719 5719 5720 5719 5719 5720 5720 5718 5716 5716 5715 5714 5714 5714 5712 5710 5709 5706 5704 5701 5699 5697 5696 5695 5695
5642 5647 5653 5658 5664 5668 5673 5677 5683 5687 5692 5696 5700 5703 5706 5708 5710 5711 5712 5712 5713 5713 5713 5714 5713 5712 5710 5709 5709 5709 5708 5708 5706 5704 5702 5699 5697 5694 5692 5690 5689 5689 5689
5634 5640 5644 5649 5655 5661 5666 5671 5676 5681 5685 5689 5693 5696 5698 5700 5703 5704 5705 5706 5707 5706 5707 5707 5707 5706 5705 5703 5702 5702 5702 5701 5700 5698 5696 5693 5691 5688 5685 5684 5683 5682 5683
5623 5629 5635 5640 5645 5651 5657 5661 5667 5672 5677 5681 5685 5688 5690 5692 5695 5697 5698 5698 5700 5701 5701 5700 5700 5700 5698 5697 5696 5695 5694 5693 5693 5692 5690 5688 5685 5682 5680 5678 5677 5676 5676
5610 5617 5624 5630 5636 5641 5647 5652 5656 5661 5667 5671 5675 5677 5679 5683 5685 5687 5691 5693 5694 5694 5694 5694 5693 5692 5692 5691 5690 5689 5687 5686 5685 5684 5682 5679 5678 5676 5674 5672 5671 5670 5669
5598 5604 5610 5618 5625 5630 5636 5641 5647 5652 5656 5660 5664 5668 5670 5673 5676 5681 5684 5685 5684 5685 5687 5687 5687 5686 5685 5684 5683 5682 5681 5680 5678 5677 5677 5675 5673 5671 5669 5667 5665 5664 5663
5582 5589 5597 5604 5612 5619 5625 5630 5636 5641 5645 5650 5654 5659 5661 5665 5667 5671 5674 5675 5675 5678 5677 5678 5679 5680 5678 5678 5677 5676 5675 5673 5672 5671 5670 5669 5667 5665 5663 5662 5661 5659 5658
5567 5575 5582 5589 5596 5604 5612 5618 5623 5628 5634 5639 5643 5647 5650 5654 5658 5661 5663 5665 5668 5668 5669 5669 5669 5671 5672 5671 5670 5668 5667 5666 5665 5664 5663 5663 5661 5660 5658 5656 5655 5653 5652
5549 5558 5566 5573 5581 5588 5596 5603 5609 5615 5620 5625 5629 5634 5639 5644 5648 5650 5653 5657 5658 5658 5660 5660 5661 5661 5663 5662 5661 5660 5659 5657 5656 5655 5654 5655 5654 5654 5653 5651 5649 5647 5646
5531 5540 5549 5557 5564 5572 5580 5588 5594 5601 5607 5612 5617 5622 5626 5631 5636 5639 5642 5644 5646 5649 5650 5651 5652 5652 5652 5652 5651 5651 5650 5648 5647 5646 5645 5645 5645 5645 5645 5644 5642 5641 5640
5512 5522 5531 5539 5548 5555 5563 5571 5578 5585 5592 5598 5603 5608 5613 5618 5621 5625 5628 5632 5635 5638 5639 5640 5642 5642 5642 5642 5641 5640 5639 5638 5637 5636 5636 5634 5634 5635 5635 5635 5635 5634 5633
5494 5503 5512 5522 5529 5538 5545 5552 5561 5569 5575 5582 5588 5594 5599 5604 5608 5612 5616 5620 5623 5626 5627 5629 5630 5631 5632 5632 5631 5630 5628 5627 5627 5626 5625 5625 5624 5625 5625 5626 5626 5626 5625
5476 5484 5493 5503 5511 5519 5527 5535 5542 5550 5558 5564 5571 5578 5585 5591 5594 5600 5604 5607 5610 5613 5616 5618 5619 5620 5620 5620 5619 5618 5618 5617 5616 5615 5615 5615 5615 5616 5616 5616 5616 5615 5615
5458 5466 5474 5483 5491 5500 5509 5517 5525 5533 5540 5548 5554 5562 5570 5576 5580 5585 5590 5593 5597 5600 5603 5605 5608 5608 5608 5609 5607 5606 5606 5607 5605 5604 5605 5606 5606 5606 5607 5607 5607 5607 5606
5441 5449 5457 5465 5474 5482 5491 5500 5508 5515 5523 5530 5537 5546 5553 5560 5565 5571 5576 5580 5583 5587 5590 5593 5594 5595 5596 5596 5596 5594 5595 5596 5595 5594 5594 5596 5596 5597 5597 5597 5597 5598 5597
5421 5429 5438 5448 5457 5466 5475 5485 5493 5501 5507 5514 5522 5530 5537 5544 5550 5557 5562 5566 5570 5574 5576 5579 5581 5583 5583 5583 5584 5583 5583 5584 5584 5585 5585 5586 5587 5587 5588 5588 5588 5588 5587